AFL804 URMM-LTAI

Flight info

Callsign AFL804
Flight time N/A
Altitude 36000
Route N0450F360 RESLO A944 GUBOR G487 ODIRA UW96 SIN UT61 BAG UW77 HISAR
Aircraft A320/M-VGDW/C

Departure

Time 2026-05-08 16:50
Airport Mineralnye Vody Airport (URMM)

Arrival

Time N/A
Airport Antalya International Airport (LTAI)
Time Latitude Longitude Altitude Speed Heading
2026-05-08 16:36 44.21756 43.08990 1063 ft 0 kts 212°
2026-05-08 16:40 44.21759 43.08993 1064 ft 1 kts 208°
2026-05-08 16:40 44.21767 43.08998 1064 ft 2 kts 204°
2026-05-08 16:40 44.21781 43.09007 1064 ft 2 kts 195°
2026-05-08 16:41 44.21796 43.09011 1064 ft 2 kts 186°
2026-05-08 16:41 44.21811 43.09012 1064 ft 2 kts 175°
2026-05-08 16:41 44.21826 43.09009 1064 ft 2 kts 165°
2026-05-08 16:42 44.21853 43.08992 1064 ft 2 kts 144°
2026-05-08 16:42 44.21864 43.08979 1064 ft 2 kts 134°
2026-05-08 16:42 44.21873 43.08964 1064 ft 1 kts 124°
2026-05-08 16:42 44.21877 43.08957 1064 ft 0 kts 122°
2026-05-08 16:45 44.21876 43.08958 1063 ft 0 kts 122°
2026-05-08 16:46 44.21861 43.08992 1063 ft 8 kts 122°
2026-05-08 16:46 44.21766 43.09178 1063 ft 14 kts 122°
2026-05-08 16:46 44.21703 43.09304 1063 ft 17 kts 133°
2026-05-08 16:47 44.21627 43.09448 1063 ft 19 kts 120°
2026-05-08 16:47 44.21549 43.09618 1063 ft 22 kts 124°
2026-05-08 16:47 44.21511 43.09785 1063 ft 14 kts 80°
2026-05-08 16:47 44.21533 43.09938 1063 ft 17 kts 76°
2026-05-08 16:48 44.21565 43.10115 1064 ft 20 kts 75°
2026-05-08 16:48 44.21650 43.10265 1063 ft 21 kts 33°
2026-05-08 16:48 44.21769 43.10322 1063 ft 15 kts 307°
2026-05-08 16:48 44.21779 43.10301 1063 ft 0 kts 303°
2026-05-08 16:49 44.21855 43.10140 1064 ft 53 kts 301°
2026-05-08 16:49 44.22166 43.09435 1064 ft 116 kts 301°
2026-05-08 16:49 44.22694 43.08263 1064 ft 167 kts 301°
2026-05-08 16:50 44.23344 43.06812 1401 ft 184 kts 302°
2026-05-08 16:50 44.24047 43.05248 1880 ft 198 kts 302°
2026-05-08 16:50 44.24796 43.03591 2515 ft 206 kts 302°
2026-05-08 16:50 44.25551 43.01927 3263 ft 209 kts 302°
2026-05-08 16:51 44.26351 43.00167 3654 ft 224 kts 302°
2026-05-08 16:51 44.27213 42.98266 3987 ft 241 kts 303°
2026-05-08 16:51 44.28128 42.96240 4442 ft 253 kts 303°
2026-05-08 16:51 44.29066 42.94160 5101 ft 256 kts 303°
2026-05-08 16:52 44.30012 42.92059 5790 ft 259 kts 303°
2026-05-08 16:52 44.30970 42.89931 6450 ft 263 kts 303°
2026-05-08 16:52 44.31890 42.87728 7108 ft 267 kts 293°
2026-05-08 16:52 44.32164 42.85168 7748 ft 275 kts 264°
2026-05-08 16:53 44.30342 42.80420 8949 ft 290 kts 232°
2026-05-08 16:53 44.29090 42.78198 9613 ft 295 kts 232°
2026-05-08 16:53 44.27819 42.75945 10280 ft 299 kts 229°
2026-05-08 16:54 44.26219 42.74049 10750 ft 311 kts 210°
2026-05-08 16:54 44.24173 42.72904 11060 ft 326 kts 194°
2026-05-08 16:54 44.21925 42.72105 11375 ft 342 kts 193°
2026-05-08 16:54 44.19585 42.71311 11881 ft 350 kts 193°
2026-05-08 16:55 44.17215 42.70492 12516 ft 354 kts 193°
2026-05-08 16:55 44.14824 42.69649 13137 ft 357 kts 194°
2026-05-08 16:55 44.12414 42.68787 13732 ft 361 kts 194°
2026-05-08 16:55 44.09976 42.67908 14095 ft 364 kts 194°
2026-05-08 16:56 44.07526 42.67022 14173 ft 364 kts 194°
2026-05-08 16:56 44.05081 42.66137 14178 ft 363 kts 194°
2026-05-08 16:56 44.02635 42.65252 14183 ft 364 kts 194°
2026-05-08 16:56 44.00190 42.64368 14188 ft 363 kts 194°
2026-05-08 16:57 43.97815 42.63204 14171 ft 363 kts 211°
2026-05-08 16:57 43.95943 42.60898 14196 ft 362 kts 236°
2026-05-08 16:57 43.94885 42.57748 14390 ft 366 kts 259°
2026-05-08 16:57 43.94667 42.54268 15034 ft 364 kts 271°
2026-05-08 16:58 43.94607 42.50775 15679 ft 365 kts 271°
2026-05-08 16:58 43.94536 42.47267 16245 ft 367 kts 271°
2026-05-08 16:58 43.94453 42.43729 16797 ft 370 kts 270°
2026-05-08 16:58 43.94362 42.40166 17330 ft 372 kts 270°
2026-05-08 16:59 43.94263 42.36585 17851 ft 375 kts 270°
2026-05-08 16:59 43.94161 42.32974 18362 ft 377 kts 270°
2026-05-08 16:59 43.94056 42.29334 18851 ft 380 kts 269°
2026-05-08 16:59 43.93948 42.25670 19325 ft 383 kts 269°
2026-05-08 17:00 43.93837 42.21979 19794 ft 386 kts 270°
2026-05-08 17:00 43.93723 42.18257 20257 ft 389 kts 270°
2026-05-08 17:00 43.93607 42.14518 20724 ft 391 kts 270°
2026-05-08 17:00 43.93490 42.10755 21185 ft 393 kts 270°
2026-05-08 17:01 43.93370 42.06967 21632 ft 396 kts 270°
2026-05-08 17:01 43.93250 42.03159 22072 ft 398 kts 270°
2026-05-08 17:01 43.93129 41.99331 22509 ft 400 kts 270°
2026-05-08 17:01 43.93004 41.95472 22941 ft 402 kts 270°
2026-05-08 17:02 43.92876 41.91599 23360 ft 405 kts 270°
2026-05-08 17:02 43.92747 41.87703 23764 ft 407 kts 270°
2026-05-08 17:02 43.92616 41.83780 24143 ft 410 kts 270°
2026-05-08 17:02 43.92482 41.79827 24508 ft 413 kts 270°
2026-05-08 17:03 43.92346 41.75851 24873 ft 416 kts 270°
2026-05-08 17:03 43.92208 41.71850 25229 ft 418 kts 270°
2026-05-08 17:03 43.92068 41.67818 25587 ft 421 kts 270°
2026-05-08 17:03 43.91925 41.63776 25933 ft 423 kts 270°
2026-05-08 17:04 43.91780 41.59704 26268 ft 425 kts 270°
2026-05-08 17:04 43.91632 41.55618 26605 ft 427 kts 270°
2026-05-08 17:04 43.91478 41.51508 26939 ft 429 kts 270°
2026-05-08 17:04 43.91320 41.47387 27258 ft 431 kts 270°
2026-05-08 17:05 43.91159 41.43245 27568 ft 433 kts 270°
2026-05-08 17:05 43.90995 41.39090 27860 ft 434 kts 270°
2026-05-08 17:05 43.90831 41.34916 28142 ft 436 kts 269°
2026-05-08 17:05 43.90665 41.30717 28435 ft 438 kts 269°
2026-05-08 17:06 43.90496 41.26505 28700 ft 440 kts 270°
2026-05-08 17:06 43.90325 41.22277 28976 ft 442 kts 270°
2026-05-08 17:06 43.90153 41.18024 29228 ft 443 kts 270°
2026-05-08 17:06 43.89978 41.13764 29490 ft 445 kts 270°
2026-05-08 17:07 43.89801 41.09489 29711 ft 447 kts 270°
2026-05-08 17:07 43.89622 41.05196 29935 ft 448 kts 270°
2026-05-08 17:07 43.89441 41.00892 30159 ft 450 kts 270°
2026-05-08 17:07 43.89258 40.96578 30406 ft 451 kts 270°
2026-05-08 17:08 43.89072 40.92255 30628 ft 452 kts 270°
2026-05-08 17:08 43.88883 40.87919 30822 ft 453 kts 270°
2026-05-08 17:08 43.88692 40.83575 31048 ft 453 kts 269°
2026-05-08 17:08 43.88397 40.79242 31314 ft 454 kts 266°
2026-05-08 17:09 43.87912 40.74931 31568 ft 455 kts 262°
2026-05-08 17:09 43.87234 40.70660 31816 ft 455 kts 258°
2026-05-08 17:09 43.86365 40.66456 32058 ft 456 kts 255°
2026-05-08 17:09 43.85307 40.62326 32304 ft 457 kts 251°
2026-05-08 17:10 43.84075 40.58287 32543 ft 457 kts 249°
2026-05-08 17:10 43.82796 40.54288 32778 ft 456 kts 249°
2026-05-08 17:10 43.81513 40.50292 33000 ft 456 kts 249°
2026-05-08 17:10 43.80230 40.46296 33210 ft 456 kts 249°
2026-05-08 17:11 43.78948 40.42303 33406 ft 456 kts 249°
2026-05-08 17:11 43.77666 40.38307 33595 ft 456 kts 249°
2026-05-08 17:11 43.76386 40.34319 33794 ft 455 kts 248°
2026-05-08 17:11 43.75104 40.30328 33993 ft 455 kts 248°
2026-05-08 17:12 43.73824 40.26347 34186 ft 455 kts 248°
2026-05-08 17:12 43.72540 40.22359 34380 ft 455 kts 248°
2026-05-08 17:12 43.71258 40.18385 34536 ft 455 kts 248°
2026-05-08 17:12 43.69973 40.14413 34685 ft 455 kts 248°
2026-05-08 17:13 43.68685 40.10441 34829 ft 455 kts 248°
2026-05-08 17:13 43.67394 40.06466 34948 ft 455 kts 248°
2026-05-08 17:13 43.66099 40.02492 35050 ft 456 kts 248°
2026-05-08 17:13 43.64800 39.98507 35159 ft 457 kts 248°
2026-05-08 17:14 43.63498 39.94517 35264 ft 458 kts 248°
2026-05-08 17:14 43.62196 39.90527 35368 ft 458 kts 248°
2026-05-08 17:14 43.60892 39.86537 35482 ft 458 kts 248°
2026-05-08 17:14 43.59584 39.82542 35591 ft 458 kts 248°
2026-05-08 17:15 43.58277 39.78556 35695 ft 458 kts 248°
2026-05-08 17:15 43.56966 39.74567 35794 ft 458 kts 248°
2026-05-08 17:15 43.54332 39.66594 35976 ft 459 kts 248°
2026-05-08 17:16 43.51682 39.58630 36157 ft 459 kts 248°
2026-05-08 17:16 43.49026 39.50667 36190 ft 460 kts 248°
2026-05-08 17:17 43.46362 39.42695 36184 ft 460 kts 249°
2026-05-08 17:17 43.43693 39.34732 36210 ft 460 kts 248°
2026-05-08 17:18 43.41018 39.26779 36195 ft 460 kts 248°
2026-05-08 17:18 43.38340 39.18831 36192 ft 460 kts 248°
2026-05-08 17:19 43.35658 39.10900 36201 ft 459 kts 249°
2026-05-08 17:19 43.33270 39.02843 36190 ft 456 kts 252°
2026-05-08 17:20 43.31008 38.94742 36209 ft 456 kts 252°
2026-05-08 17:20 43.28740 38.86653 36218 ft 456 kts 252°
2026-05-08 17:21 43.26460 38.78564 36216 ft 456 kts 252°
2026-05-08 17:21 43.24150 38.70512 36210 ft 455 kts 252°
2026-05-08 17:22 43.21824 38.62464 36202 ft 455 kts 252°
2026-05-08 17:22 43.19500 38.54440 36201 ft 454 kts 252°
2026-05-08 17:23 43.17175 38.46428 36206 ft 454 kts 252°
2026-05-08 17:23 43.14850 38.38437 36199 ft 453 kts 252°
2026-05-08 17:24 43.12522 38.30460 36202 ft 453 kts 251°
2026-05-08 17:24 43.10187 38.22485 36199 ft 453 kts 251°
2026-05-08 17:25 43.07851 38.14523 36201 ft 452 kts 252°
2026-05-08 17:25 43.05547 38.06573 36195 ft 451 kts 252°
2026-05-08 17:26 43.03241 37.98641 36189 ft 450 kts 252°
2026-05-08 17:26 43.00913 37.90730 36189 ft 450 kts 252°
2026-05-08 17:27 42.98573 37.82832 36194 ft 450 kts 252°
2026-05-08 17:27 42.96225 37.74953 36199 ft 450 kts 252°
2026-05-08 17:28 42.93865 37.67078 36194 ft 450 kts 252°
2026-05-08 17:28 42.91499 37.59201 36194 ft 450 kts 252°
2026-05-08 17:29 42.89133 37.51342 36191 ft 449 kts 252°
2026-05-08 17:29 42.86763 37.43494 36191 ft 449 kts 252°
2026-05-08 17:30 42.85473 37.39235 36196 ft 449 kts 252°
2026-05-08 17:30 42.83665 37.33270 36193 ft 449 kts 251°
2026-05-08 17:31 42.82027 37.27878 36205 ft 449 kts 251°
2026-05-08 17:31 42.80242 37.22013 36198 ft 449 kts 251°
2026-05-08 17:32 42.77856 37.14192 36196 ft 449 kts 251°
2026-05-08 17:32 42.75463 37.06372 36189 ft 449 kts 251°
2026-05-08 17:33 42.73066 36.98565 36193 ft 449 kts 251°
2026-05-08 17:33 42.70616 36.90778 36189 ft 450 kts 249°
2026-05-08 17:34 42.67873 36.83170 36188 ft 450 kts 248°